K5NCO Weather Reports


Display with metric or nautical units.
time (UTC)temp
F
wind
direction
speed
MPH
gust
MPH
rain 1hr
in
rain 24hr
in
rain mn
in
humidity
%
barometer
mb
20260904205926 91 145 6.0 7.0 0.00 0.06 0.06 53 1014.7
20260904205421 91 101 4.0 6.0 0.00 0.06 0.06 51 1014.7
20260904204919 91 152 4.0 6.0 0.00 0.06 0.06 55 1014.9
20260904204419 90 207 4.0 6.0 0.00 0.06 0.06 54 1014.9
20260904203915 90 192 5.0 6.0 0.00 0.06 0.06 55 1015.1
20260904203411 91 144 7.0 9.0 0.00 0.06 0.06 54 1015.0
20260904202906 91 202 4.0 4.0 0.00 0.06 0.06 51 1015.3
20260904202403 90 191 7.0 8.0 0.00 0.06 0.06 53 1015.3
20260904201858 90 144 2.0 2.0 0.00 0.06 0.06 53 1015.3
20260904201354 91 197 4.0 4.0 0.00 0.06 0.06 54 1015.1
20260904200848 91 111 4.0 6.0 0.00 0.06 0.06 56 1015.3
20260904200347 89 170 2.0 2.0 0.00 0.06 0.06 57 1015.4
20260904195841 90 135 10.0 11.0 0.00 0.06 0.06 57 1015.5
20260904195340 91 136 9.0 9.0 0.00 0.06 0.06 56 1015.5
20260904194835 90 96 3.0 4.0 0.00 0.06 0.06 53 1015.5
20260904194329 89 210 5.0 7.0 0.00 0.06 0.06 56 1015.5
20260904193824 89 174 6.0 8.0 0.00 0.06 0.06 55 1015.7
20260904193320 89 159 7.0 9.0 0.00 0.06 0.06 53 1015.8
20260904192815 88 251 6.0 7.0 0.00 0.06 0.06 56 1015.7
20260904192310 88 209 7.0 8.0 0.00 0.06 0.06 58 1015.9
20260904191807 89 148 7.0 8.0 0.00 0.06 0.06 56 1015.8
20260904191303 87 151 4.0 6.0 0.00 0.06 0.06 58 1016.0
20260904190759 88 184 11.0 14.0 0.00 0.06 0.06 56 1016.0
20260904190255 87 148 7.0 10.0 0.00 0.06 0.06 57 1016.2
20260904185751 87 101 4.0 6.0 0.00 0.06 0.06 55 1016.4
20260904185246 87 145 5.0 7.0 0.00 0.06 0.06 60 1016.3
20260904184745 87 176 8.0 9.0 0.00 0.06 0.06 62 1016.4
20260904184241 86 209 9.0 10.0 0.00 0.06 0.06 65 1016.5
20260904183736 86 197 7.0 9.0 0.00 0.06 0.06 68 1016.4
20260904183231 86 192 8.0 10.0 0.00 0.06 0.06 69 1016.5
20260904182726 86 228 6.0 7.0 0.00 0.06 0.06 70 1016.6
20260904182221 86 196 10.0 13.0 0.00 0.06 0.06 69 1016.5
20260904181717 86 215 4.0 6.0 0.00 0.06 0.06 68 1016.6
20260904181216 87 188 11.0 13.0 0.00 0.06 0.06 67 1016.6
20260904180712 87 153 6.0 8.0 0.00 0.06 0.06 70 1016.6
20260904180207 86 172 6.0 8.0 0.00 0.06 0.06 71 1016.8
20260904175706 85 132 2.0 3.0 0.00 0.06 0.06 73 1016.8
20260904175204 85 126 2.0 3.0 0.00 0.06 0.06 74 1016.9
20260904174659 84 136 6.0 7.0 0.00 0.06 0.06 75 1016.8
20260904174156 84 171 4.0 4.0 0.00 0.06 0.06 76 1016.9
20260904173651 85 134 4.0 4.0 0.00 0.06 0.06 76 1017.0
20260904173146 84 72 5.0 7.0 0.00 0.06 0.06 77 1016.9
20260904172642 85 148 5.0 7.0 0.00 0.06 0.06 77 1016.8
20260904172141 85 204 2.0 4.0 0.00 0.06 0.06 77 1017.0
20260904171637 85 134 4.0 4.0 0.00 0.06 0.06 76 1016.7
20260904171132 84 121 5.0 6.0 0.00 0.06 0.06 76 1017.0
20260904170627 84 208 4.0 6.0 0.00 0.06 0.06 76 1017.0
20260904170123 84 162 4.0 4.0 0.00 0.06 0.06 77 1017.1
20260904165622 84 129 4.0 4.0 0.00 0.06 0.06 77 1017.1
20260904165116 84 138 3.0 3.0 0.00 0.06 0.06 77 1017.2
20260904164616 84 130 3.0 3.0 0.00 0.06 0.06 77 1017.1
20260904164106 84 155 4.0 4.0 0.00 0.06 0.06 78 1017.0
20260904163601 84 203 2.0 3.0 0.00 0.06 0.06 78 1017.0
20260904163056 84 190 4.0 4.0 0.00 0.06 0.06 78 1017.1
20260904162556 84 213 5.0 7.0 0.00 0.06 0.06 79 1017.2
20260904162052 83 167 1.0 2.0 0.00 0.06 0.06 81 1017.0
20260904161546 83 257 5.0 6.0 0.00 0.06 0.06 80 1017.0
20260904161042 83 188 6.0 7.0 0.00 0.06 0.06 81 1016.8
20260904160537 82 226 4.0 6.0 0.00 0.06 0.06 82 1017.1
20260904160033 82 198 4.0 4.0 0.00 0.06 0.06 82 1016.8
20260904155532 82 181 4.0 4.0 0.00 0.06 0.06 83 1017.0
20260904155026 82 206 5.0 7.0 0.00 0.06 0.06 83 1016.8
20260904154520 82 234 4.0 4.0 0.00 0.06 0.06 83 1016.8
20260904154015 82 234 5.0 7.0 0.00 0.06 0.06 84 1016.7
20260904153515 82 206 7.0 8.0 0.00 0.06 0.06 84 1016.6
20260904153012 82 210 3.0 6.0 0.00 0.06 0.06 84 1016.7
20260904152507 82 181 5.0 7.0 0.00 0.06 0.06 84 1016.6
20260904152002 82 243 5.0 7.0 0.00 0.06 0.06 85 1016.5
20260904151456 82 232 4.0 6.0 0.00 0.06 0.06 85 1016.5
20260904150951 82 165 6.0 7.0 0.00 0.06 0.06 86 1016.4
20260904150446 82 212 6.0 8.0 0.00 0.06 0.06 87 1016.5
20260904145944 82 205 10.0 11.0 0.00 0.06 0.06 86 1016.2
20260904145440 81 228 8.0 11.0 0.00 0.06 0.06 88 1016.3
20260904144935 81 191 3.0 4.0 0.00 0.06 0.06 88 1016.4
20260904144431 80 225 2.0 2.0 0.00 0.06 0.06 90 1016.6
20260904143927 80 191 1.0 2.0 0.00 0.06 0.06 91 1016.3
20260904143423 80 205 7.0 8.0 0.00 0.06 0.06 91 1016.4
20260904142920 80 237 3.0 3.0 0.00 0.06 0.06 92 1016.5
20260904142415 80 203 3.0 3.0 0.00 0.06 0.06 92 1016.4
20260904141909 80 228 4.0 4.0 0.00 0.06 0.06 92 1016.4
20260904141404 80 223 2.0 2.0 0.00 0.06 0.06 93 1016.5
20260904140901 79 233 3.0 4.0 0.00 0.06 0.06 93 1016.4
20260904140355 79 207 3.0 4.0 0.00 0.06 0.06 94 1016.4
20260904135854 79 270 4.0 6.0 0.00 0.06 0.06 95 1016.2
20260904135349 79 274 2.0 3.0 0.00 0.06 0.06 96 1016.3
20260904134846 78 218 4.0 4.0 0.00 0.06 0.06 96 1016.3
20260904134345 78 193 2.0 2.0 0.00 0.06 0.06 96 1016.3
20260904133845 78 234 0.0 0.0 0.07 0.06 0.06 96 1016.2
20260904133340 78 203 1.0 1.0 0.24 0.06 0.06 96 1016.1
20260904132835 79 207 4.0 6.0 0.28 0.05 0.05 95 1016.0
20260904132330 79 211 7.0 9.0 0.17 0.03 0.03 94 1016.1
20260904131830 79 185 4.0 6.0 0.00 0.00 0.00 94 1016.1
20260904131325 79 213 6.0 8.0 0.00 0.00 0.00 93 1016.1
20260904130820 79 199 3.0 3.0 0.00 0.00 0.00 94 1016.3
20260904130319 79 205 3.0 3.0 0.00 0.00 0.00 94 1016.1
20260904125815 79 214 4.0 4.0 0.00 0.00 0.00 94 1016.2
20260904125311 79 214 3.0 3.0 0.00 0.00 0.00 94 1016.3
20260904124810 79 205 5.0 6.0 0.00 0.00 0.00 94 1016.2
20260904124307 79 179 3.0 4.0 0.00 0.00 0.00 93 1016.4
20260904123802 79 156 3.0 3.0 0.00 0.00 0.00 93 1016.2
20260904123257 79 124 1.0 2.0 0.00 0.00 0.00 93 1016.2
20260904122752 79 189 2.0 2.0 0.00 0.00 0.00 92 1016.2
20260904122251 79 160 3.0 3.0 0.00 0.00 0.00 92 1016.2
20260904121747 79 184 2.0 3.0 0.00 0.00 0.00 92 1016.0
20260904121243 79 157 4.0 6.0 0.00 0.00 0.00 92 1015.8
20260904120739 79 133 3.0 4.0 0.00 0.00 0.00 92 1015.8
20260904120235 79 104 2.0 3.0 0.00 0.00 0.00 91 1015.9
20260904115735 79 158 2.0 3.0 0.00 0.00 0.00 91 1015.8
20260904115229 79 183 2.0 3.0 0.00 0.00 0.00 91 1015.9
20260904114724 79 129 4.0 7.0 0.00 0.00 0.00 91 1015.6
20260904114219 79 143 2.0 3.0 0.00 0.00 0.00 91 1015.5
20260904113714 79 94 6.0 7.0 0.00 0.00 0.00 91 1015.6
20260904113213 79 154 4.0 7.0 0.00 0.00 0.00 91 1015.4
20260904112709 79 112 3.0 4.0 0.00 0.00 0.00 91 1015.3
20260904112204 79 73 3.0 3.0 0.00 0.00 0.00 91 1015.4
20260904111659 79 69 5.0 7.0 0.00 0.00 0.00 91 1015.3
20260904111154 79 113 4.0 6.0 0.00 0.00 0.00 90 1015.4
20260904110649 79 89 3.0 3.0 0.00 0.00 0.00 90 1015.2
20260904110143 79 111 4.0 6.0 0.00 0.00 0.00 90 1015.0
20260904105638 79 144 4.0 6.0 0.00 0.00 0.00 90 1015.3
20260904105133 79 117 3.0 4.0 0.00 0.00 0.00 90 1015.2
20260904104629 79 84 5.0 7.0 0.00 0.00 0.00 90 1015.1
20260904104124 79 91 2.0 4.0 0.00 0.00 0.00 89 1015.0
20260904103621 80 143 4.0 6.0 0.00 0.00 0.00 89 1015.0
20260904103116 80 135 6.0 7.0 0.00 0.00 0.00 89 1015.0
20260904102612 80 126 3.0 3.0 0.00 0.00 0.00 89 1015.2
20260904102107 80 119 3.0 3.0 0.00 0.00 0.00 89 1015.0
20260904101603 80 171 4.0 4.0 0.00 0.00 0.00 89 1015.0
20260904101059 80 200 4.0 7.0 0.00 0.00 0.00 88 1014.9
20260904100554 80 168 7.0 8.0 0.00 0.00 0.00 88 1014.9
20260904100049 80 91 3.0 4.0 0.00 0.00 0.00 88 1014.7
20260904095544 80 136 3.0 4.0 0.00 0.00 0.00 87 1014.9
20260904095039 80 145 4.0 4.0 0.00 0.00 0.00 87 1014.8
20260904094534 80 124 4.0 7.0 0.00 0.00 0.00 87 1014.8
20260904094029 80 162 4.0 4.0 0.00 0.00 0.00 86 1014.7
20260904093526 80 147 2.0 2.0 0.00 0.00 0.00 86 1014.7
20260904093026 80 180 5.0 6.0 0.00 0.00 0.00 86 1014.5
20260904092521 81 201 3.0 3.0 0.00 0.00 0.00 86 1014.7
20260904092018 81 178 5.0 6.0 0.00 0.00 0.00 86 1014.6
20260904091514 81 146 4.0 6.0 0.00 0.00 0.00 86 1014.8
20260904091013 81 204 6.0 9.0 0.00 0.00 0.00 86 1014.9
20260904090508 81 156 4.0 6.0 0.00 0.00 0.00 86 1014.8
20260904090004 81 170 5.0 6.0 0.00 0.00 0.00 86 1014.8
20260904085459 81 132 4.0 4.0 0.00 0.00 0.00 86 1014.8
20260904084958 81 174 8.0 10.0 0.00 0.00 0.00 86 1014.9
20260904084454 81 114 5.0 8.0 0.00 0.00 0.00 86 1014.8
20260904083950 81 177 7.0 8.0 0.00 0.00 0.00 86 1014.7
20260904083446 81 199 4.0 4.0 0.00 0.00 0.00 86 1014.8
20260904082942 81 168 5.0 8.0 0.00 0.00 0.00 86 1014.7
20260904082437 81 183 5.0 7.0 0.00 0.00 0.00 86 1014.7
20260904081931 81 176 4.0 4.0 0.00 0.00 0.00 86 1014.7
20260904081427 81 174 11.0 13.0 0.00 0.00 0.00 86 1014.7
20260904080923 81 146 9.0 10.0 0.00 0.00 0.00 86 1014.8
20260904080418 81 129 9.0 10.0 0.00 0.00 0.00 86 1014.8
20260904075914 81 174 2.0 2.0 0.00 0.00 0.00 85 1014.6
20260904075410 81 141 4.0 4.0 0.00 0.00 0.00 85 1014.7
20260904074908 81 130 4.0 4.0 0.00 0.00 0.00 85 1014.6
20260904074403 81 184 7.0 9.0 0.00 0.00 0.00 85 1014.8
20260904073859 81 174 12.0 14.0 0.00 0.00 0.00 85 1014.6
20260904073355 81 177 6.0 9.0 0.00 0.00 0.00 85 1014.7
20260904072850 81 165 5.0 6.0 0.00 0.00 0.00 85 1014.6
20260904072345 81 134 7.0 10.0 0.00 0.00 0.00 85 1014.9
20260904071841 81 181 6.0 8.0 0.00 0.00 0.00 84 1014.7
20260904071335 81 160 6.0 9.0 0.00 0.00 0.00 84 1015.0
20260904070825 81 163 6.0 7.0 0.00 0.00 0.00 84 1015.1
20260904070323 81 167 5.0 8.0 0.00 0.00 0.00 84 1015.1
20260904065818 81 133 4.0 6.0 0.00 0.00 0.00 84 1015.3
20260904065314 81 151 4.0 6.0 0.00 0.00 0.00 84 1015.3
20260904064809 81 133 6.0 8.0 0.00 0.00 0.00 84 1015.2
20260904064305 81 169 6.0 9.0 0.00 0.00 0.00 84 1015.1
20260904063801 81 166 4.0 6.0 0.00 0.00 0.00 84 1015.2
20260904063257 81 159 6.0 7.0 0.00 0.00 0.00 84 1014.9
20260904062752 81 192 2.0 2.0 0.00 0.00 0.00 84 1015.1
20260904062248 81 192 6.0 8.0 0.00 0.00 0.00 84 1015.0
20260904061743 81 105 3.0 3.0 0.00 0.00 0.00 83 1015.0
20260904061239 81 123 6.0 8.0 0.00 0.00 0.00 84 1015.1
20260904060736 81 171 4.0 4.0 0.00 0.00 0.00 83 1014.9
20260904060231 81 135 2.0 3.0 0.00 0.00 0.00 83 1015.1
20260904055726 81 131 9.0 9.0 0.00 0.00 0.00 84 1015.1
20260904055220 80 143 6.0 8.0 0.00 0.00 0.00 84 1015.4
20260904054716 80 118 5.0 7.0 0.00 0.00 0.00 83 1015.2
20260904054212 81 125 8.0 9.0 0.00 0.00 0.00 83 1015.1
20260904053707 81 115 2.0 2.0 0.00 0.00 0.00 83 1015.1
20260904053202 81 84 7.0 9.0 0.00 0.00 0.00 83 1015.2
20260904052658 80 120 6.0 8.0 0.00 0.00 0.00 83 1015.2
20260904052154 80 131 5.0 7.0 0.00 0.00 0.00 83 1015.0
20260904051650 80 154 7.0 9.0 0.00 0.00 0.00 83 1014.9
20260904051145 80 140 6.0 8.0 0.00 0.00 0.00 83 1014.9
20260904050640 80 145 8.0 10.0 0.00 0.00 0.00 83 1014.9
20260904050136 80 130 5.0 10.0 0.00 0.00 0.00 83 1014.9
20260904045630 80 138 6.0 7.0 0.00 0.00 0.00 83 1015.0
20260904045125 80 82 4.0 6.0 0.00 0.00 0.00 83 1015.0
20260904044621 80 159 6.0 10.0 0.00 0.00 0.00 83 1015.1
20260904044117 80 119 6.0 7.0 0.00 0.00 0.00 83 1014.9
20260904043614 80 108 9.0 10.0 0.00 0.00 0.00 83 1015.0
20260904043109 80 78 3.0 4.0 0.00 0.00 0.00 82 1015.0
20260904042605 81 149 5.0 8.0 0.00 0.00 0.00 82 1015.0
20260904042100 81 139 4.0 7.0 0.00 0.00 0.00 82 1015.0
20260904041556 81 126 5.0 6.0 0.00 0.00 0.00 82 1015.0
20260904041052 81 131 4.0 4.0 0.00 0.00 0.00 82 1015.0
20260904040552 81 109 4.0 4.0 0.00 0.00 0.00 82 1014.9
20260904040049 81 94 7.0 11.0 0.00 0.00 0.00 81 1014.9
20260904035549 81 166 3.0 6.0 0.00 0.00 0.00 81 1014.9
20260904035043 81 101 5.0 7.0 0.00 0.00 0.00 81 1014.7
20260904034538 81 118 6.0 8.0 0.00 0.00 0.00 81 1015.0
20260904034033 81 121 5.0 6.0 0.00 0.00 0.00 80 1014.7
20260904033529 81 113 6.0 9.0 0.00 0.00 0.00 80 1014.9
20260904033027 81 127 6.0 8.0 0.00 0.00 0.00 79 1014.9
20260904032522 81 125 7.0 9.0 0.00 0.00 0.00 79 1014.6
20260904032020 81 122 11.0 11.0 0.00 0.00 0.00 79 1014.7
20260904031515 81 120 9.0 11.0 0.00 0.00 0.00 79 1014.8
20260904031011 82 119 10.0 14.0 0.00 0.00 0.00 78 1014.7
20260904030507 82 94 9.0 9.0 0.00 0.00 0.00 78 1014.6
20260904030002 82 187 10.0 13.0 0.00 0.00 0.00 77 1014.5
20260904025458 82 82 6.0 8.0 0.00 0.00 0.00 77 1014.6
20260904024958 82 107 14.0 16.0 0.00 0.00 0.00 76 1014.6
20260904024453 82 87 4.0 4.0 0.00 0.00 0.00 75 1014.4
20260904023949 82 150 6.0 7.0 0.00 0.00 0.00 75 1014.5
20260904023445 82 96 6.0 8.0 0.00 0.00 0.00 74 1014.4
20260904022945 83 130 2.0 3.0 0.00 0.00 0.00 74 1014.4
20260904022441 83 119 9.0 13.0 0.00 0.00 0.00 74 1014.2
20260904021937 83 94 6.0 8.0 0.00 0.00 0.00 73 1014.1
20260904021433 83 110 8.0 10.0 0.00 0.00 0.00 73 1014.1
20260904020927 83 84 6.0 8.0 0.00 0.00 0.00 73 1013.9
20260904020422 83 123 4.0 7.0 0.00 0.00 0.00 72 1013.8
20260904015921 83 100 6.0 9.0 0.00 0.00 0.00 72 1013.9
20260904015417 83 168 2.0 3.0 0.00 0.00 0.00 72 1013.9
20260904014915 84 76 2.0 3.0 0.00 0.00 0.00 71 1013.9
20260904014411 84 83 12.0 14.0 0.00 0.00 0.00 71 1013.7
20260904013906 84 83 5.0 6.0 0.00 0.00 0.00 70 1013.8
20260904013402 84 82 6.0 9.0 0.00 0.00 0.00 70 1013.8
20260904012857 84 95 5.0 6.0 0.00 0.00 0.00 70 1013.6
20260904012352 84 77 3.0 4.0 0.00 0.00 0.00 69 1013.6
20260904011851 84 91 7.0 9.0 0.00 0.00 0.00 69 1013.6
20260904011346 84 103 11.0 15.0 0.00 0.00 0.00 69 1013.2
20260904010841 84 95 4.0 4.0 0.00 0.00 0.00 69 1013.4
20260904010338 85 168 5.0 7.0 0.00 0.00 0.00 69 1013.2
20260904005833 85 115 6.0 9.0 0.00 0.00 0.00 69 1013.5
20260904005328 85 103 5.0 9.0 0.00 0.00 0.00 68 1013.4
20260904004823 85 152 6.0 8.0 0.00 0.00 0.00 68 1013.4
20260904004320 85 114 5.0 7.0 0.00 0.00 0.00 68 1013.4
20260904003814 85 96 11.0 14.0 0.00 0.00 0.00 68 1013.5
20260904003311 86 88 8.0 11.0 0.00 0.00 0.00 67 1013.4
20260904002806 86 123 9.0 15.0 0.00 0.00 0.00 67 1013.5
20260904002306 86 116 6.0 8.0 0.00 0.00 0.00 67 1013.5
20260904001801 86 59 6.0 8.0 0.00 0.00 0.00 67 1013.2
20260904001256 86 102 7.0 10.0 0.00 0.00 0.00 67 1013.4
20260904000751 87 100 5.0 10.0 0.00 0.00 0.00 66 1013.4
20260904000251 87 112 7.0 10.0 0.00 0.00 0.00 66 1013.2
20260903235750 87 66 8.0 10.0 0.00 0.00 0.00 65 1013.2
20260903235247 87 82 10.0 13.0 0.00 0.00 0.00 66 1013.1
20260903234746 87 73 6.0 9.0 0.00 0.00 0.00 66 1013.1
20260903234243 88 40 6.0 8.0 0.00 0.00 0.00 65 1013.2
20260903233738 88 104 7.0 10.0 0.00 0.00 0.00 65 1013.0
20260903233234 88 110 12.0 17.0 0.00 0.00 0.00 65 1012.8
20260903232732 88 76 10.0 13.0 0.00 0.00 0.00 65 1012.8
20260903232229 88 59 12.0 16.0 0.00 0.00 0.00 65 1012.9
20260903231728 88 145 10.0 14.0 0.00 0.00 0.00 66 1013.0
20260903231223 89 116 11.0 13.0 0.00 0.00 0.00 66 1013.0
20260903230720 89 127 15.0 17.0 0.00 0.00 0.00 65 1012.9
20260903230220 89 63 10.0 18.0 0.00 0.00 0.00 65 1012.9
20260903225716 90 88 8.0 11.0 0.00 0.00 0.00 64 1012.7
20260903225212 91 142 9.0 11.0 0.00 0.00 0.00 64 1012.6
20260903224708 91 133 3.0 7.0 0.00 0.00 0.00 65 1012.6
20260903224204 91 78 10.0 14.0 0.00 0.00 0.00 65 1012.5
20260903223659 91 151 4.0 6.0 0.00 0.00 0.00 66 1012.4
20260903223157 92 67 15.0 22.0 0.00 0.00 0.00 64 1012.3
20260903222652 92 78 15.0 21.0 0.00 0.00 0.00 62 1012.5
20260903222150 92 97 18.0 24.0 0.00 0.00 0.00 62 1012.2
20260903221646 93 108 6.0 7.0 0.00 0.00 0.00 62 1012.4
20260903221144 93 117 13.0 16.0 0.00 0.00 0.00 61 1012.4
20260903220643 92 83 9.0 10.0 0.00 0.00 0.00 60 1012.5
20260903220138 93 77 12.0 18.0 0.00 0.00 0.00 61 1012.2
20260903215637 93 89 6.0 10.0 0.00 0.00 0.00 59 1012.4
20260903215133 94 71 7.0 13.0 0.00 0.00 0.00 56 1012.2
20260903214631 93 78 8.0 13.0 0.00 0.00 0.00 55 1012.3
20260903214127 93 65 5.0 8.0 0.00 0.00 0.00 56 1012.5
20260903213621 94 121 4.0 6.0 0.00 0.00 0.00 56 1012.5
20260903213117 93 88 10.0 14.0 0.00 0.00 0.00 57 1012.4
20260903212613 93 100 8.0 10.0 0.00 0.00 0.00 56 1012.6
20260903212108 94 116 7.0 10.0 0.00 0.00 0.00 55 1012.3
20260903211603 94 50 4.0 9.0 0.00 0.00 0.00 55 1012.5
20260903211100 94 92 10.0 13.0 0.00 0.00 0.00 53 1012.5
20260903210555 95 52 7.0 11.0 0.00 0.00 0.00 53 1012.7